TimeEDT,TemperatureF,Dew PointF,Humidity,Sea Level PressureIn,VisibilityMPH,Wind Direction,Wind SpeedMPH,Gust SpeedMPH,PrecipitationIn,Events,Conditions,WindDirDegrees,DateUTC
12:15 AM,48.2,46.4,93,29.73,7.0,East,8.1,-,N/A,,Overcast,100,2013-05-26 04:15:00
12:35 AM,48.2,46.4,93,29.73,9.0,East,6.9,-,N/A,,Overcast,90,2013-05-26 04:35:00
12:55 AM,48.2,46.4,93,29.72,5.0,East,8.1,-,N/A,,Overcast,100,2013-05-26 04:55:00
1:15 AM,48.2,46.4,93,29.70,8.0,East,9.2,-,N/A,,Overcast,90,2013-05-26 05:15:00
1:35 AM,48.2,46.4,93,29.70,3.0,East,8.1,-,N/A,,Overcast,100,2013-05-26 05:35:00
1:55 AM,48.2,46.4,93,29.69,5.0,East,5.8,-,N/A,,Overcast,100,2013-05-26 05:55:00
2:15 AM,48.2,46.4,93,29.68,7.0,East,8.1,-,N/A,,Overcast,100,2013-05-26 06:15:00
2:35 AM,48.2,46.4,93,29.67,8.0,East,5.8,-,N/A,,Overcast,90,2013-05-26 06:35:00
2:55 AM,48.2,46.4,93,29.67,4.0,East,8.1,-,N/A,,Overcast,90,2013-05-26 06:55:00
3:15 AM,48.2,46.4,93,29.66,5.0,East,8.1,-,N/A,,Overcast,100,2013-05-26 07:15:00
3:35 AM,48.2,48.2,100,29.65,5.0,East,8.1,-,N/A,,Overcast,100,2013-05-26 07:35:00
3:55 AM,48.2,48.2,100,29.65,9.0,East,9.2,-,N/A,,Overcast,90,2013-05-26 07:55:00
4:15 AM,48.2,48.2,100,29.65,5.0,East,9.2,-,N/A,,Overcast,90,2013-05-26 08:15:00
4:35 AM,48.2,48.2,100,29.64,3.0,ENE,8.1,-,N/A,,Overcast,70,2013-05-26 08:35:00
4:55 AM,48.2,48.2,100,29.64,3.0,East,9.2,-,N/A,,Overcast,80,2013-05-26 08:55:00
5:15 AM,48.2,48.2,100,29.64,2.0,East,10.4,-,N/A,,Overcast,90,2013-05-26 09:15:00
5:35 AM,48.2,48.2,100,29.64,9.0,ESE,6.9,-,N/A,,Overcast,110,2013-05-26 09:35:00
5:55 AM,48.2,48.2,100,29.65,6.0,SSE,10.4,-,N/A,,Overcast,160,2013-05-26 09:55:00
6:15 AM,48.2,48.2,100,29.65,9.0,South,9.2,-,N/A,,Overcast,190,2013-05-26 10:15:00
6:35 AM,46.4,46.4,100,29.66,8.0,South,5.8,-,N/A,,Overcast,170,2013-05-26 10:35:00
6:55 AM,46.4,46.4,100,29.66,10.0,SSE,8.1,-,N/A,,Overcast,160,2013-05-26 10:55:00
7:15 AM,46.4,46.4,100,29.67,10.0,South,6.9,-,N/A,,Overcast,170,2013-05-26 11:15:00
7:35 AM,46.4,46.4,100,29.67,7.0,SSE,9.2,-,N/A,,Overcast,150,2013-05-26 11:35:00
7:55 AM,48.2,46.4,93,29.67,10.0,SSE,9.2,-,N/A,,Overcast,160,2013-05-26 11:55:00
8:15 AM,46.4,46.4,100,29.68,8.0,South,11.5,-,N/A,,Overcast,170,2013-05-26 12:15:00
8:35 AM,46.4,46.4,100,29.69,10.0,South,10.4,-,N/A,,Overcast,170,2013-05-26 12:35:00
8:55 AM,46.4,46.4,100,29.69,10.0,SSE,8.1,-,N/A,,Overcast,150,2013-05-26 12:55:00
9:15 AM,46.4,46.4,100,29.69,10.0,SSE,8.1,-,N/A,,Overcast,160,2013-05-26 13:15:00
9:35 AM,46.4,46.4,100,29.69,9.0,South,8.1,-,N/A,,Overcast,170,2013-05-26 13:35:00
9:55 AM,48.2,46.4,93,29.69,10.0,SSE,9.2,-,N/A,,Overcast,150,2013-05-26 13:55:00
10:15 AM,46.4,46.4,100,29.70,10.0,SSE,9.2,-,N/A,,Overcast,160,2013-05-26 14:15:00
10:35 AM,48.2,46.4,93,29.70,10.0,SSE,11.5,-,N/A,,Overcast,160,2013-05-26 14:35:00
10:56 AM,48.2,46.4,93,29.70,10.0,SSE,9.2,-,N/A,,Overcast,160,2013-05-26 14:56:00
11:15 AM,48.2,46.4,93,29.70,10.0,SSE,9.2,-,N/A,,Overcast,160,2013-05-26 15:15:00
11:35 AM,48.2,44.6,87,29.70,10.0,SSE,5.8,-,N/A,,Overcast,160,2013-05-26 15:35:00
11:55 AM,48.2,44.6,87,29.70,10.0,South,6.9,-,N/A,,Overcast,170,2013-05-26 15:55:00
12:15 PM,48.2,44.6,87,29.71,10.0,SE,5.8,-,N/A,,Overcast,140,2013-05-26 16:15:00
12:35 PM,48.2,44.6,87,29.71,10.0,SE,5.8,-,N/A,,Overcast,130,2013-05-26 16:35:00
12:55 PM,48.2,46.4,93,29.72,10.0,East,3.5,-,N/A,,Overcast,100,2013-05-26 16:55:00
1:15 PM,46.4,46.4,100,29.72,2.5,East,8.1,-,N/A,,Overcast,90,2013-05-26 17:15:00
1:35 PM,46.4,46.4,100,29.73,1.8,East,5.8,-,N/A,,Overcast,80,2013-05-26 17:35:00
1:55 PM,46.4,46.4,100,29.72,3.0,East,4.6,-,N/A,,Overcast,90,2013-05-26 17:55:00
2:15 PM,46.4,46.4,100,29.72,10.0,East,5.8,-,N/A,,Overcast,100,2013-05-26 18:15:00
2:35 PM,46.4,46.4,100,29.72,10.0,East,6.9,-,N/A,,Overcast,100,2013-05-26 18:35:00
2:55 PM,48.2,46.4,93,29.73,10.0,East,4.6,-,N/A,,Overcast,90,2013-05-26 18:55:00
3:15 PM,48.2,46.4,93,29.73,10.0,Calm,Calm,-,N/A,,Overcast,0,2013-05-26 19:15:00
3:35 PM,48.2,44.6,87,29.74,10.0,ENE,3.5,-,N/A,,Overcast,70,2013-05-26 19:35:00
3:55 PM,48.2,46.4,93,29.74,10.0,East,3.5,-,N/A,,Overcast,90,2013-05-26 19:55:00
4:15 PM,48.2,46.4,93,29.75,10.0,Calm,Calm,-,N/A,,Overcast,0,2013-05-26 20:15:00
4:35 PM,48.2,46.4,93,29.76,10.0,Calm,Calm,-,N/A,,Overcast,0,2013-05-26 20:35:00
4:55 PM,48.2,46.4,93,29.76,9.0,Calm,Calm,-,N/A,,Overcast,0,2013-05-26 20:55:00
5:16 PM,48.2,46.4,93,29.77,10.0,SW,3.5,-,N/A,,Overcast,220,2013-05-26 21:16:00
5:35 PM,48.2,48.2,100,29.77,7.0,Calm,Calm,-,N/A,,Overcast,0,2013-05-26 21:35:00
5:55 PM,48.2,48.2,100,29.78,10.0,SW,3.5,-,N/A,,Overcast,220,2013-05-26 21:55:00
6:15 PM,48.2,46.4,93,29.79,8.0,SW,4.6,-,N/A,,Overcast,220,2013-05-26 22:15:00
6:35 PM,48.2,48.2,100,29.80,4.0,NW,5.8,-,N/A,,Overcast,310,2013-05-26 22:35:00
6:55 PM,50.0,48.2,94,29.80,10.0,NW,8.1,-,N/A,,Overcast,310,2013-05-26 22:55:00
7:15 PM,50.0,48.2,94,29.81,10.0,NW,5.8,-,N/A,,Overcast,310,2013-05-26 23:15:00
7:35 PM,48.2,48.2,100,29.82,10.0,WNW,8.1,-,N/A,,Mostly Cloudy,300,2013-05-26 23:35:00
7:56 PM,48.2,48.2,100,29.83,10.0,WNW,3.5,-,N/A,,Mostly Cloudy,290,2013-05-26 23:56:00
8:15 PM,48.2,48.2,100,29.84,10.0,WNW,4.6,-,N/A,,Overcast,290,2013-05-27 00:15:00
8:35 PM,48.2,48.2,100,29.84,10.0,WNW,6.9,-,N/A,,Mostly Cloudy,300,2013-05-27 00:35:00
8:55 PM,48.2,46.4,93,29.85,10.0,WNW,8.1,-,N/A,,Overcast,300,2013-05-27 00:55:00
9:15 PM,48.2,44.6,87,29.87,10.0,WNW,8.1,-,N/A,,Overcast,290,2013-05-27 01:15:00
9:35 PM,46.4,44.6,93,29.88,10.0,WNW,6.9,-,N/A,,Overcast,300,2013-05-27 01:35:00
9:55 PM,46.4,44.6,93,29.88,10.0,WNW,5.8,-,N/A,,Scattered Clouds,300,2013-05-27 01:55:00
10:15 PM,46.4,42.8,87,29.89,10.0,WNW,3.5,-,N/A,,Partly Cloudy,290,2013-05-27 02:15:00
10:35 PM,44.6,42.8,93,29.90,10.0,West,4.6,-,N/A,,Scattered Clouds,270,2013-05-27 02:35:00
10:55 PM,44.6,42.8,93,29.91,10.0,Calm,Calm,-,N/A,,Overcast,0,2013-05-27 02:55:00
11:15 PM,44.6,42.8,93,29.90,10.0,Calm,Calm,-,N/A,,Partly Cloudy,0,2013-05-27 03:15:00
11:35 PM,42.8,42.8,100,29.91,10.0,WSW,3.5,-,N/A,,Clear,250,2013-05-27 03:35:00
11:55 PM,44.6,42.8,93,29.91,10.0,West,3.5,-,N/A,,Clear,260,2013-05-27 03:55:00